Tracking 29059 objects as of 19-Jun-2024
HD Live streaming from Space Station
objects crossing your sky now

SPACEBEE-7

Track SPACEBEE-7 now!
10-day predictions


NORAD ID: 43816
Int'l Code: 2018-099BL
Perigee: 532.3 km
Apogee: 544.0 km
Inclination: 97.5 °
Period: 95.3 minutes
Semi major axis: 6909 km
RCS: Unknown
Launch date: December 3, 2018
Source: United States (US)
Launch site: AIR FORCE WESTERN TEST RANGE (AFWTR)
Your satellite tracking list
Your tracking list is empty




NASA's NSSDC Master Catalog

Two Line Element Set (TLE):
1 43816U 18099BL  24170.72647765  .00012668  00000-0  74633-3 0  9996
2 43816  97.5487 234.4061 0008509 279.9681  80.0588 15.11705387302640
Source of the keplerian elements: AFSPC